Date String (YYYY-MM-DD hh:mm:ss) UTC,Instrument flags,Ambient pressure (hPa),Sample flow (lpm),Bypass flow (lpm),Sample temperature (°C),Ambient temperature (°C),ASC tube jacket temperature (°C),LED temperature (°C),Box temperature (°C),Sample RH (%),Span deviation,Mass concentration (μg/m³),Mass concentration (μg/m³),Mass concentration (μg/m³)
DateTimeUTC,F1_M11,P_M11,Q1_M11,Q2_M11,T1_M11,T2_M11,T3_M11,T4_M11,T5_M11,U1_M11,ZSPAN_M11,X0_M11,X2_M11,X1_M11
2022-01-18 09:00:00,,0819.3,4.98,0.00,24.3,23.6,00.0,33.4,26.1,06.6,0000.0,0002.50,0001.42,0001.27
2022-01-18 09:01:00,,0819.3,5.01,0.00,24.3,23.6,00.0,33.4,26.1,06.2,0000.0,0002.53,0001.41,0001.26
2022-01-18 09:02:00,,0819.3,4.99,0.00,24.3,23.6,00.0,33.4,26.1,05.8,0000.0,0002.54,0001.39,0001.24
2022-01-18 09:03:00,,0819.3,5.01,0.00,24.3,23.6,00.0,33.4,26.1,05.8,0000.0,0002.53,0001.38,0001.21
2022-01-18 09:04:00,,0819.3,4.98,0.00,24.3,23.6,00.0,33.4,26.1,06.1,0000.0,0002.44,0001.32,0001.17
2022-01-18 09:05:00,,0819.3,4.99,0.00,24.3,23.6,00.0,33.4,26.1,05.4,0000.0,0001.75,0001.13,0001.00
2022-01-18 09:06:00,,0819.3,5.01,0.00,24.3,23.6,00.0,33.4,26.1,05.2,0000.0,0001.26,0000.92,0000.83
2022-01-18 09:07:00,,0819.2,4.99,0.00,24.3,23.6,00.0,33.4,26.1,05.2,0000.0,0000.89,0000.66,0000.61
2022-01-18 09:08:00,,0819.2,5.01,0.00,24.3,23.6,00.0,33.4,26.1,05.5,0000.0,0000.82,0000.60,0000.55
2022-01-18 09:09:00,,0819.2,4.99,0.00,24.3,23.6,00.0,33.4,26.1,05.4,0000.0,0000.85,0000.58,0000.51
2022-01-18 09:10:00,,0819.2,5.01,0.00,24.3,23.6,00.0,33.4,26.1,05.4,0000.0,0000.91,0000.54,0000.48
2022-01-18 09:11:00,,0819.2,4.98,0.00,24.3,23.6,00.0,33.3,26.0,05.4,0000.0,0000.86,0000.50,0000.44
2022-01-18 09:12:00,,0819.2,5.01,0.00,24.3,23.6,00.0,33.3,26.0,05.4,0000.0,0000.83,0000.47,0000.41
2022-01-18 09:13:00,,0819.3,4.99,0.00,24.3,23.6,00.0,33.3,26.1,05.5,0000.0,0000.81,0000.45,0000.39
2022-01-18 09:14:00,,0819.2,5.00,0.00,24.3,23.6,00.0,33.3,26.1,06.0,0000.0,0000.77,0000.43,0000.38
2022-01-18 09:15:00,,0819.2,5.01,0.00,24.3,23.6,00.0,33.3,26.1,05.7,0000.0,0000.88,0000.42,0000.37
2022-01-18 09:16:00,,0819.3,5.00,0.00,24.3,23.6,00.0,33.3,26.1,05.6,0000.0,0000.94,0000.43,0000.37
2022-01-18 09:17:00,,0819.3,5.01,0.00,24.3,23.6,00.0,33.3,26.1,05.7,0000.0,0000.96,0000.44,0000.37
2022-01-18 09:18:00,,0819.2,4.99,0.00,24.3,23.6,00.0,33.3,26.1,05.8,0000.0,0000.97,0000.45,0000.39
2022-01-18 09:19:00,,0819.1,4.98,0.00,24.3,23.6,00.0,33.3,26.1,05.7,0000.0,0002.34,0000.45,0000.39
2022-01-18 09:20:00,,0819.1,5.02,0.00,24.3,23.6,00.0,33.3,26.1,05.6,0000.0,0002.54,0000.45,0000.40
2022-01-18 09:21:00,,0819.1,4.99,0.00,24.3,23.6,00.0,33.3,26.1,05.6,0000.0,0002.45,0000.45,0000.40
2022-01-18 09:22:00,,0819.2,4.99,0.00,24.3,23.6,00.0,33.3,26.1,05.4,0000.0,0002.46,0000.46,0000.40
2022-01-18 09:23:00,,0819.3,5.00,0.00,24.3,23.6,00.0,33.3,26.1,05.5,0000.0,0002.45,0000.46,0000.41
2022-01-18 09:24:00,,0819.2,5.01,0.00,24.3,23.6,00.0,33.3,26.2,05.7,0000.0,0002.36,0000.46,0000.41
2022-01-18 09:25:00,,0819.2,5.00,0.00,24.3,23.6,00.0,33.3,26.1,05.8,0000.0,0002.36,0000.46,0000.41
2022-01-18 09:26:00,,0819.1,5.00,0.00,24.3,23.6,00.0,33.3,26.1,05.9,0000.0,0002.28,0000.45,0000.41
2022-01-18 09:27:00,,0819.1,4.99,0.00,24.3,23.6,00.0,33.3,26.1,05.8,0000.0,0002.24,0000.46,0000.42
2022-01-18 09:28:00,,0819.2,4.99,0.00,24.3,23.6,00.0,33.3,26.1,05.9,0000.0,0002.25,0000.46,0000.42
2022-01-18 09:29:00,,0819.2,5.00,0.00,24.3,23.6,00.0,33.3,26.1,05.8,0000.0,0002.25,0000.46,0000.42
2022-01-18 09:30:00,,0819.1,5.00,0.00,24.3,23.6,00.0,33.3,26.1,05.7,0000.0,0001.42,0000.46,0000.41
2022-01-18 09:31:00,,0819.2,5.01,0.00,24.3,23.6,00.0,33.3,26.1,05.7,0000.0,0000.61,0000.45,0000.41
2022-01-18 09:32:00,,0819.1,4.98,0.00,24.3,23.6,00.0,33.3,26.2,05.8,0000.0,0000.59,0000.44,0000.41
2022-01-18 09:33:00,,0819.1,5.01,0.00,24.3,23.6,00.0,33.3,26.2,05.7,0000.0,0000.64,0000.46,0000.40
2022-01-18 09:34:00,,0819.1,4.99,0.00,24.3,23.6,00.0,33.3,26.2,05.7,0000.0,0000.63,0000.45,0000.40
2022-01-18 09:35:00,,0819.1,5.00,0.00,24.3,23.6,00.0,33.3,26.2,05.8,0000.0,0000.69,0000.46,0000.41
2022-01-18 09:36:00,,0819.1,5.01,0.00,24.3,23.6,00.0,33.3,26.1,05.8,0000.0,0000.74,0000.47,0000.41
2022-01-18 09:37:00,,0819.1,4.99,0.00,24.3,23.6,00.0,33.3,26.1,05.7,0000.0,0000.81,0000.46,0000.40
2022-01-18 09:38:00,,0818.9,5.00,0.00,24.3,23.5,00.0,33.3,26.0,05.4,0000.0,0001.08,0000.46,0000.39
2022-01-18 09:39:00,,0818.9,5.02,0.00,24.2,23.5,00.0,33.3,26.0,05.3,0000.0,0001.07,0000.45,0000.38
2022-01-18 09:40:00,,0818.9,4.99,0.00,24.2,23.4,00.0,33.3,25.9,05.3,0000.0,0001.15,0000.45,0000.36
2022-01-18 09:41:00,,0818.9,5.01,0.00,24.2,23.4,00.0,33.3,25.8,05.2,0000.0,0001.19,0000.45,0000.35
2022-01-18 09:42:00,,0818.9,5.01,0.00,24.1,23.4,00.0,33.2,25.7,04.9,0000.0,0001.18,0000.43,0000.34
2022-01-18 09:43:00,,0818.9,5.00,0.00,24.1,23.3,00.0,33.2,25.6,04.9,0000.0,0001.14,0000.41,0000.33
2022-01-18 09:44:00,,0818.8,4.99,0.00,24.1,23.3,00.0,33.2,25.6,05.0,0000.0,0001.12,0000.40,0000.32
2022-01-18 09:45:00,,0818.9,5.00,0.00,24.0,23.3,00.0,33.2,25.6,04.8,0000.0,0001.41,0000.40,0000.31
2022-01-18 09:46:00,,0818.9,5.00,0.00,24.0,23.2,00.0,33.2,25.6,04.8,0000.0,0002.21,0000.39,0000.30
2022-01-18 09:47:00,,0818.9,5.01,0.00,24.0,23.2,00.0,33.1,25.5,04.7,0000.0,0002.17,0000.38,0000.28
2022-01-18 09:48:00,,0818.9,5.00,0.00,24.0,23.1,00.0,33.1,25.5,04.6,0000.0,0002.05,0000.38,0000.28
2022-01-18 09:49:00,,0818.9,4.99,0.00,23.9,23.1,00.0,33.1,25.5,04.7,0000.0,0001.71,0000.35,0000.27
2022-01-18 09:50:00,,0818.8,5.01,0.00,23.9,23.1,00.0,33.1,25.5,04.8,0000.0,0001.73,0000.35,0000.26
2022-01-18 09:51:00,,0818.9,5.01,0.00,23.9,23.0,00.0,33.1,25.5,04.6,0000.0,0001.62,0000.33,0000.26
2022-01-18 09:52:00,,0818.8,5.00,0.00,23.9,23.0,00.0,33.1,25.5,04.7,0000.0,0001.59,0000.33,0000.26
2022-01-18 09:53:00,,0818.8,4.99,0.00,23.8,23.0,00.0,33.0,25.5,04.6,0000.0,0001.59,0000.33,0000.26
2022-01-18 09:54:00,,0818.9,5.00,0.00,23.8,23.0,00.0,33.0,25.4,04.6,0000.0,0001.60,0000.33,0000.26
2022-01-18 09:55:00,,0819.0,5.01,0.00,23.8,23.0,00.0,33.0,25.4,04.5,0000.0,0001.55,0000.32,0000.27
2022-01-18 09:56:00,,0818.9,5.00,0.00,23.8,23.0,00.0,33.0,25.4,04.6,0000.0,0001.25,0000.31,0000.27
2022-01-18 09:57:00,,0818.9,5.00,0.00,23.8,23.0,00.0,33.0,25.4,04.6,0000.0,0000.39,0000.30,0000.27
2022-01-18 09:58:00,,0818.9,4.98,0.00,23.8,23.0,00.0,33.0,25.4,04.6,0000.0,0000.37,0000.30,0000.27
2022-01-18 09:59:00,,0818.9,5.01,0.00,23.8,23.0,00.0,33.0,25.4,04.5,0000.0,0000.38,0000.29,0000.27
